Flag for Norway Weather past 2 weeks in Elverum, Norway

Now
61 °F

Cool.


Feels Like: 61 °F
Forecast: 56 / 64 °F
Wind: 1 mph from East

Location: Haugedalshogda

Current Time: Jul 6, 2015 at 1:20:04 AM

Latest Report: Jul 6, 2015 at 12:00 AM


Visibility: N/A

Pressure: 29.89 "Hg

Humidity: 83%

Dew point: 56 °F

Location of ElverumLocation

Historic Weather in Elverum — Graph

°F

Elverum temperature yesterday

Maximum temperature yesterday: 82 °F (at 4:00 PM)
Minimum temperature yesterday: 53 °F (at 4:00 AM)
Average temperature yesterday: 69 °F

Past Weeks' High & Low Weather Summary

 TemperatureHumidityPressure
High82 °F (Jul 5, 4:00 PM)95% (Jun 22, 5:00 AM)30.32 "Hg (Jun 22, 5:00 AM)
Low43 °F (Jun 22, 4:00 AM)29% (Jul 2, 12:00 PM)29.69 "Hg (Jun 23, 3:00 PM)
Average61 °F66%29.98 "Hg
* Reported Midnight between Jun 20 and Jun 21 — Midnight between Jul 5 and Jul 6, Elverum, Weather by CustomWeather, © 2015

Note: Actual official high and low records may vary slightly from our data, if they occured in-between our weather recording intervals... More about our weather records

Advertising

Elverum weather history for previous 24 hours

 ConditionsComfort  
Time TempWeatherWind HumidityBarometerVisibility
12:00 AM
Mon, Jul 6
61 °FCool.1 mph83%29.89 "HgN/A
11:00 PM
Sun, Jul 5
62 °FMild.1 mph76%29.89 "HgN/A
10:00 PM68 °FMild.2 mph61%29.88 "HgN/A
9:00 PM73 °FMild.5 mph47%29.87 "HgN/A
8:00 PM79 °FPleasantly warm.5 mph37%29.87 "HgN/A
7:00 PM80 °FPleasantly warm.6 mph32%29.89 "HgN/A
6:00 PM81 °FPleasantly warm.6 mph30%29.91 "HgN/A
5:00 PM80 °FPleasantly warm.6 mph33%29.93 "HgN/A
4:00 PM82 °FPleasantly warm.3 mph29%29.93 "HgN/A
3:00 PM79 °FPleasantly warm.3 mph33%29.96 "HgN/A
2:00 PM78 °FPleasantly warm.5 mph35%29.98 "HgN/A
1:00 PM79 °FPleasantly warm.2 mph31%29.99 "HgN/A
12:00 PM72 °FMild.2 mph47%30.03 "HgN/A
11:00 AM72 °FMild.1 mph52%30.04 "HgN/A
10:00 AM68 °FMild.2 mph61%30.06 "HgN/A
9:00 AM68 °FMild.1 mph56%30.06 "HgN/A
8:00 AM67 °FMild.1 mph58%30.07 "HgN/A
7:00 AM63 °FMild.No wind76%30.09 "HgN/A
6:00 AM59 °FCool.1 mph82%30.10 "HgN/A
4:00 AM53 °FCool.1 mph91%30.10 "HgN/A
3:00 AM54 °FCool.1 mph90%30.09 "HgN/A
2:00 AM54 °FCool.1 mph90%30.09 "HgN/A
1:00 AM57 °FCool.1 mph88%30.09 "HgN/A
Weather by CustomWeather, © 2015

See weather overviewHow to use our weather pages